Weather History for KAKO - October, 2012

Change the Weather History Date:

Saturday, October 27, 2012

  Actual Average Record
Temperature  
Mean Temperature 37 °F 46 °F  
Max Temperature 46 °F 60 °F 81 °F (1983)
Min Temperature 27 °F 33 °F 21 °F (1954)
Degree Days  
Heating Degree Days 28    
Month to date heating degree days 476  
Cooling Degree Days 0    
Month to date cooling degree days 0  
Moisture  
Dew Point 26 °F    
Average Humidity 67    
Maximum Humidity 92    
Minimum Humidity 42    
Precipitation  
Precipitation 0.00 in 0.02 in 0.03 in (1976)
Month to date precipitation 0.62 1.01  
Year to date precipitation 7.72 15.66  
Sea Level Pressure  
Sea Level Pressure 30.19 in    
Wind  
Wind Speed 8 mph (SW)    
Max Wind Speed 16 mph    
Max Gust Speed 21 mph    
T = Trace of Precipitation, MM = Missing Value Source: NWS Daily Summary

Daily Weather History Graph

Daily Weather History Graph

Search for Another Location

Airport or City:

Trip Planner

Search our weather history database for the weather conditions in past years. The results will help you decide how hot, cold, wet, or windy it might be!

Date:

Astronomy

Oct. 27, 2012 Rise Set
Actual Time 7:17 AM MDT 5:55 PM MDT
Civil Twilight 6:49 AM MDT 6:23 PM MDT
Nautical Twilight 6:17 AM MDT 6:55 PM MDT
Astronomical Twilight 5:45 AM MDT 7:26 PM MDT
Moon 4:42 PM MDT (10/27) 5:14 AM MDT (10/27)
Length of Visible Light 11h 34m
Length of Day
10h 38m
Waxing Gibbous, 96% of the Moon is Illuminated
Oct 27
Waxing Gibbous
Oct 29
Full
Nov 6
Last Quarter
Nov 13
New
Nov 20
First Quarter

Hourly Weather History & Observations

Time (MDT) Temp. Windchill Dew Point Humidity Pressure Visibility Wind Dir Wind Speed Gust Speed Precip Events Conditions
12:53 AM 28.0 °F 20.8 °F 23.0 °F 81% 30.26 in - South 6.9 mph - N/A   Clear
1:53 AM 28.9 °F 22.8 °F 23.0 °F 78% 30.24 in - SSW 5.8 mph - N/A   Clear
2:53 AM 28.9 °F 19.2 °F 24.1 °F 82% 30.23 in - SSW 11.5 mph - N/A   Mostly Cloudy
3:53 AM 28.9 °F 20.4 °F 24.1 °F 82% 30.22 in - SSW 9.2 mph - N/A   Mostly Cloudy
4:53 AM 30.0 °F 20.0 °F 25.0 °F 82% 30.20 in - SSW 12.7 mph - N/A   Overcast
5:53 AM 28.0 °F 17.5 °F 25.0 °F 88% 30.19 in - South 12.7 mph - N/A   Mostly Cloudy
6:53 AM 27.0 °F 16.7 °F 25.0 °F 92% 30.22 in - SSW 11.5 mph - N/A   Overcast
7:53 AM 28.9 °F 18.2 °F 25.0 °F 85% 30.23 in - West 13.8 mph - N/A   Overcast
8:53 AM 28.9 °F 20.4 °F 25.0 °F 85% 30.24 in - West 9.2 mph 17.3 mph N/A   Mostly Cloudy
9:53 AM 30.0 °F 21.7 °F 26.1 °F 85% 30.23 in - West 9.2 mph - N/A   Overcast
10:53 AM 35.1 °F 30.1 °F 28.0 °F 76% 30.19 in - WSW 5.8 mph - N/A   Overcast
11:53 AM 37.9 °F 32.7 °F 28.9 °F 70% 30.17 in - West 6.9 mph - N/A   Overcast
12:53 PM 44.1 °F - 28.0 °F 53% 30.14 in - Calm Calm - N/A   Partly Cloudy
1:53 PM 45.0 °F 42.6 °F 25.0 °F 46% 30.12 in - NNW 4.6 mph - N/A   Partly Cloudy
2:53 PM 46.0 °F 43.9 °F 25.0 °F 44% 30.11 in - Variable 4.6 mph - N/A   Overcast
3:53 PM 46.0 °F 43.9 °F 26.1 °F 46% 30.12 in - NW 4.6 mph - N/A   Mostly Cloudy
4:53 PM 45.0 °F - 25.0 °F 46% 30.12 in - Calm Calm - N/A   Clear
5:53 PM 41.0 °F 39.0 °F 28.9 °F 62% 30.15 in - SSW 3.5 mph - N/A   Scattered Clouds
6:53 PM 39.9 °F 37.8 °F 27.0 °F 60% 30.18 in - South 3.5 mph - N/A   Partly Cloudy
7:53 PM 36.0 °F 32.1 °F 26.1 °F 67% 30.19 in - SE 4.6 mph - N/A   Clear
8:53 PM 36.0 °F 30.3 °F 27.0 °F 70% 30.21 in - South 6.9 mph - N/A   Clear
10:53 PM 36.0 °F 29.6 °F 27.0 °F 70% 30.19 in - South 8.1 mph - N/A   Overcast
11:53 PM 37.9 °F 30.9 °F 28.0 °F 68% 30.17 in - SSW 10.4 mph - N/A   Overcast